Current weather by "City, St" or "zip code"  
 

Current Conditions: Poplar Bluff, Poplar Bluff Municipal Airport, MO

Fair


65.0 F

Last Updated on Oct 21 2021, 10:53 am CDT
Humidity: 47%
Wind Speed: W 12.7 G 20.7 mph
Barometer 30.09 in
Dewpoint: 44.1 F
Visibility: 10.00 mi
Precip: --
Heat Index: NA
Wind Chill: NA
Current conditions at:

Poplar Bluff, Poplar Bluff Municipal Airport, MO (KPOF)

Lat: 36.77056 Lon: 90.32222

Local Radar Image active severe weather and emergency alerts image image weather storm and storm spotter reports image weather observation monitoring service image
Local
Radar
Active
Alerts
Storm Reports Obs
Monitoring

Sign-up For Email & Text Message Weather Alert Notification Services



Advertise Here

Observation History for Poplar Bluff, Poplar Bluff Municipal Airport, MO


Time Wind
(mph)
Vis
(mi)
Weather Precip (in) Temperature (F) Relative
Humidity
Wind
Chill
(F)
Heat
Index
(F)
Pressure
Air Dwpt altimeter
(in)
sea level
(mb)
Rmks
10:53 am CDT W 12.7 G 20.7 10.00 Fair -- 65.0 44.1 47% NA NA 30.09 1018.8
9:53 am CDT W 8.1 G 18.4 10.00 Fair -- 64.0 46.9 54% NA NA 30.10 1019.1
8:53 am CDT W 8.1 10.00 Fair -- 61.0 48.9 65% 60 NA 30.09 1018.7
7:53 am CDT W 3.5 10.00 Fair -- 58.0 50.0 75% NA NA 30.07 1018.2
6:53 am CDT W 5.8 10.00 Fair -- 58.0 53.1 84% 57 NA 30.05 1017.5
5:53 am CDT SW 4.6 7.00 Fair -- 59.0 57.0 93% 59 NA 30.04 1017.0
4:53 am CDT SW 4.6 7.00 Fair -- 60.0 57.0 90% 60 NA 30.02 1016.3
3:53 am CDT SW 5.8 7.00 Fair -- 62.0 57.0 84% 62 NA 30.01 1015.9
2:53 am CDT SW 6.9 9.00 Overcast -- 64.0 57.9 81% NA NA 30.02 1016.0
1:53 am CDT SW 6.9 9.00 Mostly Cloudy Trace 64.0 57.9 81% NA NA 30.02 1016.3
12:53 am CDT S 4.6 10.00 Overcast -- 63.0 57.9 84% 64 NA 30.03 1016.4
11:53 pm CDT SW 3.5 10.00 Mostly Cloudy -- 63.0 57.0 81% NA NA 30.04 1017.0
10:53 pm CDT S 8.1 9.00 Overcast -- 65.0 57.0 76% NA NA 30.04 1017.1
9:53 pm CDT S 8.1 9.00 Fair -- 65.0 55.9 73% NA NA 30.04 1017.1
8:53 pm CDT S 5.8 9.00 Fair -- 62.0 55.0 78% 62 NA 30.04 1017.3
7:53 pm CDT S 4.6 9.00 Fair -- 64.0 54.0 70% NA NA 30.05 1017.5
6:53 pm CDT SW 5.8 10.00 Fair -- 67.0 54.0 63% NA NA 30.04 1017.2
5:53 pm CDT S 10.4 9.00 Fair -- 73.0 55.0 53% NA NA 30.03 1016.7
4:53 pm CDT S 11.5 6.00 Fair with Haze Trace 76.0 55.9 50% NA NA 30.03 1016.9
3:53 pm CDT S 12.7 10.00 Light Rain -- 78.0 55.9 47% NA NA 30.05 1017.3
2:53 pm CDT S 12.7 G 24.2 10.00 Light Rain Trace 78.0 55.9 47% NA NA 30.07 1017.9
1:53 pm CDT SW 10.4 9.00 Fair -- 78.0 57.9 50% NA NA 30.09 1018.7
12:53 pm CDT S 10.4 9.00 Fair -- 76.0 55.9 50% NA NA 30.13 1020.0
11:53 am CDT S 11.5 9.00 Fair -- 72.0 55.0 55% NA NA 30.16 1021.0

Regional Weather Observation


Malden Municipal Airport, MO (KMAW)

Fair
66.0 F

Corning Municipal Airport, AR (K4M9)

Fair with Haze
66.0 F

Kennett - Kennett Memorial Airport, MO (KTKX)

Fair
70.0 F

Farmington Airport, MO (KFAM)

Fair
57.0 F

Walnut Ridge Regional Airport, AR (KARG)

Fair
66.0 F

Sikeston Memorial Municipal Airport, MO (KSIK)

Fair
64.0 F

Advertise Here


Advertise Here